When you browse on this site, cookies collect data to enhance your experience and personalize the content and advertising you see.
Visit our Privacy Policy to learn more. By continuing to use the site, you agree to this use of cookies and data.
  • In Romania
  • List of Countries
  • For 7 days
  • Water Temperature
  • Satellite Maps
  • Weather Map
  • Weather Widgets
  • user-avatar
    Login

    Hourly Weather Kosterevo

    Today, 25 April, Thursday

    Time Temperature Precipitation Wind Pressure Humidity
    00:00 +13°C° 0 mm 1 mps 753 mmHg 57%
    01:00 +12°C° 0 mm 1 mps 753 mmHg 59%
    02:00 +12°C° 0 mm 1 mps 753 mmHg 64%
    03:00 +12°C° 0 mm 1 mps 753 mmHg 65%
    04:00 +11°C° 0 mm 1 mps 753 mmHg 66%
    05:00 +11°C° 0 mm 1 mps 753 mmHg 68%
    06:00 +13°C° 0 mm 1 mps 752 mmHg 62%
    07:00 +15°C° 0 mm 1 mps 752 mmHg 57%
    08:00 +18°C° 0 mm 1 mps 752 mmHg 52%
    09:00 +20°C° 0 mm 1 mps 752 mmHg 47%
    10:00 +21°C° 0 mm 1 mps 752 mmHg 43%
    11:00 +23°C° 0 mm 1 mps 752 mmHg 39%
    12:00 +23°C° 0 mm 1 mps 752 mmHg 37%
    13:00 +24°C° 0 mm 1 mps 752 mmHg 35%
    14:00 +24°C° 0 mm 2 mps 751 mmHg 33%
    15:00 +23°C° 0 mm 1 mps 751 mmHg 37%
    16:00 +23°C° 0 mm 1 mps 751 mmHg 41%
    17:00 +22°C° 0 mm 1 mps 751 mmHg 45%
    18:00 +20°C° 0 mm 1 mps 751 mmHg 47%
    19:00 +17°C° 0 mm 0 mps 751 mmHg 49%
    20:00 +15°C° 0 mm 0 mps 751 mmHg 51%
    21:00 +15°C° 0 mm 0 mps 751 mmHg 53%
    22:00 +14°C° 0 mm 0 mps 751 mmHg 54%
    23:00 +14°C° 0 mm 1 mps 751 mmHg 56%

    Tomorrow, 26 April, Friday

    Time Temperature Precipitation Wind Pressure Humidity
    00:00 +14°C° 0 mm 1 mps 751 mmHg 58%
    01:00 +12°C° 0 mm 0 mps 751 mmHg 60%
    02:00 +12°C° 0 mm 0 mps 751 mmHg 61%
    03:00 +12°C° 0 mm 0 mps 751 mmHg 62%
    04:00 +12°C° 0 mm 1 mps 750 mmHg 63%
    05:00 +12°C° 0 mm 1 mps 750 mmHg 64%
    06:00 +14°C° 0 mm 1 mps 750 mmHg 58%
    07:00 +16°C° 0 mm 1 mps 750 mmHg 53%
    08:00 +19°C° 0 mm 1 mps 750 mmHg 47%
    09:00 +20°C° 0 mm 1 mps 750 mmHg 43%
    10:00 +22°C° 0 mm 1 mps 750 mmHg 38%
    11:00 +23°C° 0 mm 1 mps 750 mmHg 34%
    12:00 +23°C° 0 mm 1 mps 749 mmHg 32%
    13:00 +23°C° 0 mm 2 mps 749 mmHg 31%
    14:00 +24°C° 0 mm 2 mps 749 mmHg 29%
    15:00 +23°C° 0 mm 2 mps 748 mmHg 33%
    16:00 +23°C° 0 mm 2 mps 748 mmHg 37%
    17:00 +21°C° 0 mm 2 mps 748 mmHg 40%
    18:00 +19°C° 0 mm 2 mps 748 mmHg 45%
    19:00 +18°C° 0 mm 2 mps 747 mmHg 49%
    20:00 +16°C° 0 mm 2 mps 747 mmHg 53%
    21:00 +15°C° 0 mm 2 mps 747 mmHg 56%
    22:00 +15°C° 0 mm 2 mps 747 mmHg 59%
    23:00 +14°C° 0 mm 2 mps 747 mmHg 62%

    Day after tomorrow, 27 April, Saturday

    Time Temperature Precipitation Wind Pressure Humidity
    00:00 +14°C° 0 mm 2 mps 746 mmHg 64%
    01:00 +13°C° 0 mm 2 mps 746 mmHg 66%
    02:00 +13°C° 0 mm 2 mps 746 mmHg 69%
    03:00 +13°C° 0 mm 2 mps 745 mmHg 71%
    04:00 +13°C° 0 mm 2 mps 745 mmHg 73%
    05:00 +12°C° 0 mm 2 mps 745 mmHg 74%
    06:00 +14°C° 0 mm 2 mps 744 mmHg 68%
    07:00 +16°C° 0 mm 3 mps 744 mmHg 62%
    08:00 +18°C° 0 mm 3 mps 744 mmHg 56%
    09:00 +19°C° 0 mm 3 mps 743 mmHg 51%
    10:00 +20°C° 0 mm 4 mps 743 mmHg 46%
    11:00 +22°C° 0 mm 5 mps 742 mmHg 40%
    12:00 +22°C° 0 mm 4 mps 742 mmHg 38%
    13:00 +23°C° 0 mm 4 mps 741 mmHg 36%
    14:00 +23°C° 0 mm 4 mps 741 mmHg 33%
    15:00 +23°C° 0 mm 4 mps 741 mmHg 36%
    16:00 +22°C° 0 mm 3 mps 740 mmHg 38%
    17:00 +23°C° 0 mm 2 mps 740 mmHg 41%
    18:00 +20°C° 0.6 mm 2 mps 739 mmHg 53%
    19:00 +18°C° 0.6 mm 2 mps 739 mmHg 65%
    20:00 +16°C° 0.6 mm 2 mps 739 mmHg 78%
    21:00 +15°C° 1 mm 2 mps 739 mmHg 83%
    22:00 +14°C° 1 mm 2 mps 739 mmHg 88%
    23:00 +14°C° 1 mm 2 mps 739 mmHg 92%

    28 April, Sunday

    Time Temperature Precipitation Wind Pressure Humidity
    00:00 +13°C° 0.3 mm 2 mps 739 mmHg 92%
    01:00 +12°C° 0.3 mm 3 mps 740 mmHg 92%
    02:00 +12°C° 0.3 mm 3 mps 740 mmHg 92%
    03:00 +11°C° 0.1 mm 4 mps 740 mmHg 90%
    04:00 +9°C° 0.1 mm 5 mps 741 mmHg 89%
    05:00 +9°C° 0.1 mm 6 mps 741 mmHg 87%
    06:00 +8°C° 0 mm 6 mps 742 mmHg 85%
    07:00 +7°C° 0 mm 6 mps 743 mmHg 83%
    08:00 +5°C° 0 mm 6 mps 744 mmHg 80%
    09:00 +7°C° 0 mm 6 mps 744 mmHg 71%
    10:00 +7°C° 0 mm 6 mps 745 mmHg 62%
    11:00 +8°C° 0 mm 6 mps 746 mmHg 53%
    12:00 +8°C° 0 mm 6 mps 746 mmHg 49%
    13:00 +9°C° 0 mm 6 mps 746 mmHg 45%
    14:00 +9°C° 0 mm 5 mps 747 mmHg 40%
    15:00 +9°C° 0 mm 5 mps 747 mmHg 41%
    16:00 +8°C° 0 mm 5 mps 747 mmHg 42%
    17:00 +8°C° 0 mm 5 mps 747 mmHg 43%
    18:00 +6°C° 0 mm 5 mps 748 mmHg 46%
    19:00 +5°C° 0 mm 4 mps 749 mmHg 49%
    20:00 +3°C° 0 mm 3 mps 749 mmHg 52%
    21:00 +3°C° 0 mm 3 mps 750 mmHg 54%
    22:00 +2°C° 0 mm 3 mps 750 mmHg 56%
    23:00 +1°C° 0 mm 3 mps 751 mmHg 58%

    29 April, Monday

    Time Temperature Precipitation Wind Pressure Humidity
    00:00 +1°C° 0 mm 3 mps 751 mmHg 61%
    01:00 0°C° 0 mm 3 mps 751 mmHg 63%
    02:00 0°C° 0 mm 3 mps 752 mmHg 65%
    03:00 0°C° 0 mm 3 mps 752 mmHg 67%
    04:00 -1°C° 0 mm 3 mps 752 mmHg 68%
    05:00 -1°C° 0 mm 3 mps 752 mmHg 70%
    06:00 0°C° 0 mm 3 mps 752 mmHg 63%
    07:00 +1°C° 0 mm 4 mps 753 mmHg 56%
    08:00 +3°C° 0 mm 4 mps 753 mmHg 49%
    09:00 +4°C° 0 mm 4 mps 753 mmHg 45%
    10:00 +5°C° 0 mm 4 mps 753 mmHg 41%
    11:00 +6°C° 0 mm 4 mps 753 mmHg 37%
    12:00 +7°C° 0 mm 4 mps 753 mmHg 36%
    13:00 +8°C° 0 mm 3 mps 752 mmHg 35%
    14:00 +9°C° 0 mm 3 mps 752 mmHg 33%
    15:00 +9°C° 0 mm 3 mps 752 mmHg 35%
    16:00 +9°C° 0 mm 3 mps 752 mmHg 36%
    17:00 +8°C° 0 mm 3 mps 752 mmHg 38%
    18:00 +7°C° 0 mm 3 mps 752 mmHg 44%
    19:00 +5°C° 0 mm 2 mps 752 mmHg 50%
    20:00 +3°C° 0 mm 2 mps 752 mmHg 57%
    21:00 +3°C° 0 mm 2 mps 752 mmHg 59%
    22:00 +2°C° 0 mm 2 mps 753 mmHg 61%
    23:00 +1°C° 0 mm 2 mps 753 mmHg 63%

    30 April, Tuesday

    Time Temperature Precipitation Wind Pressure Humidity
    00:00 +1°C° 0 mm 2 mps 753 mmHg 63%
    01:00 +1°C° 0 mm 1 mps 753 mmHg 64%
    02:00 +1°C° 0 mm 1 mps 753 mmHg 64%
    03:00 +1°C° 0 mm 1 mps 753 mmHg 64%
    04:00 +1°C° 0 mm 1 mps 753 mmHg 63%
    05:00 +1°C° 0 mm 1 mps 753 mmHg 62%
    06:00 +3°C° 0 mm 1 mps 753 mmHg 55%
    07:00 +4°C° 0 mm 2 mps 753 mmHg 49%
    08:00 +6°C° 0 mm 2 mps 753 mmHg 42%
    09:00 +7°C° 0 mm 2 mps 753 mmHg 39%
    10:00 +8°C° 0 mm 2 mps 753 mmHg 36%
    11:00 +9°C° 0 mm 2 mps 753 mmHg 33%
    12:00 +10°C° 0 mm 2 mps 752 mmHg 32%
    13:00 +12°C° 0 mm 2 mps 752 mmHg 31%
    14:00 +12°C° 0 mm 2 mps 751 mmHg 30%
    15:00 +12°C° 0 mm 1 mps 751 mmHg 31%
    16:00 +12°C° 0 mm 1 mps 751 mmHg 32%
    17:00 +11°C° 0 mm 1 mps 750 mmHg 33%
    18:00 +10°C° 0 mm 1 mps 750 mmHg 38%
    19:00 +8°C° 0 mm 1 mps 750 mmHg 44%
    20:00 +6°C° 0 mm 1 mps 750 mmHg 50%
    21:00 +5°C° 0 mm 1 mps 750 mmHg 51%
    22:00 +5°C° 0 mm 1 mps 750 mmHg 53%
    23:00 +4°C° 0 mm 1 mps 750 mmHg 55%
    Show more